Wahpeton, MN

12:49 PM CST on November 18, 2019 (GMT -0600)
Stern

Weather History for KBWP - September, 2019

Change the Weather History Date:

Wednesday, September 11, 2019

  Actual Average (WUND) Record (WUND)
Temperature  
Mean Temperature 62 °F -  
Max Temperature 68 °F - - (-1)
Min Temperature 55 °F - - (-1)
Degree Days  
Heating Degree Days 4    
Growing Degree Days 12 (Base 50)    
Moisture  
Dew Point 54 °F    
Average Humidity 81    
Maximum Humidity 94    
Minimum Humidity 64    
Precipitation  
Precipitation 0.00 in - - ()
Sea Level Pressure  
Sea Level Pressure 30.08 in    
Wind  
Wind Speed 7 mph ()    
Max Wind Speed 16 mph    
Max Gust Speed 22 mph    
Visibility 10.0 miles    
Events      
Averages and records for this station are not official NWS values.
T = Trace of Precipitation, MM = Missing Value Source: Averaged Metar Reports

Daily Weather History Graph

Daily Weather History Graph

Search for Another Location

Airport or City:

Astronomy

Sep. 11, 2019 Rise Set
Actual Time 6:59 AM CDT 7:46 PM CDT
Civil Twilight 6:28 AM CDT 8:16 PM CDT
Nautical Twilight 5:52 AM CDT 8:52 PM CDT
Astronomical Twilight 5:14 AM CDT 9:30 PM CDT
Moon 7:09 PM CDT (9/11) 4:10 AM CDT (9/11)
Length of Visible Light 13h 47m
Length of Day
12h 46m
Waxing Gibbous, 95% of the Moon is Illuminated
Sep 11
Waxing Gibbous
Sep 13
Full
Sep 21
Last Quarter
Sep 28
New
Oct 5
First Quarter

Hourly Weather History & Observations

Time (CDT) Temp. Dew Point Humidity Pressure Visibility Wind Dir Wind Speed Gust Speed Precip Events Conditions
12:15 AM 57.2 °F 53.6 °F 88% 30.10 in 10.0 mi NE 3.5 mph - N/A   Unknown
12:35 AM 57.2 °F 53.6 °F 88% 30.08 in 10.0 mi NE 5.8 mph - N/A   Unknown
12:55 AM 55.4 °F 53.6 °F 94% 30.08 in 10.0 mi NE 5.8 mph - N/A   Unknown
1:15 AM 55.4 °F 53.6 °F 94% 30.06 in 10.0 mi NE 6.9 mph - N/A   Overcast
1:35 AM 55.4 °F 53.6 °F 94% 30.05 in 10.0 mi NE 9.2 mph - N/A   Overcast
1:55 AM 55.4 °F 51.8 °F 88% 30.04 in 10.0 mi NE 9.2 mph - N/A   Overcast
2:15 AM 55.4 °F 51.8 °F 88% 30.05 in 10.0 mi East 4.6 mph - N/A   Unknown
2:35 AM 55.4 °F 51.8 °F 88% 30.03 in 10.0 mi ENE 6.9 mph - N/A   Unknown
2:55 AM 55.4 °F 51.8 °F 88% 30.01 in 10.0 mi ENE 6.9 mph - N/A   Unknown
3:15 AM 55.4 °F 51.8 °F 88% 30.02 in 10.0 mi North 6.9 mph - N/A   Unknown
3:35 AM 55.4 °F 51.8 °F 88% 30.04 in 10.0 mi North 4.6 mph - N/A   Unknown
3:55 AM 55.4 °F 51.8 °F 88% 30.06 in 10.0 mi Calm Calm - N/A   Unknown
4:15 AM 55.4 °F 51.8 °F 88% 30.06 in 10.0 mi North 3.5 mph - N/A   Unknown
4:35 AM 55.4 °F 51.8 °F 88% 30.06 in 10.0 mi North 5.8 mph - N/A   Unknown
4:55 AM 55.4 °F 51.8 °F 88% 30.07 in 10.0 mi North 6.9 mph - N/A   Overcast
5:15 AM 55.4 °F 51.8 °F 88% 30.06 in 10.0 mi NNE 10.4 mph - N/A   Overcast
5:35 AM 55.4 °F 51.8 °F 88% 30.05 in 10.0 mi NE 9.2 mph - N/A   Overcast
5:55 AM 55.4 °F 51.8 °F 88% 30.05 in 10.0 mi NNE 6.9 mph - N/A   Overcast
6:15 AM 55.4 °F 51.8 °F 88% 30.06 in 10.0 mi NNE 6.9 mph - N/A   Unknown
6:35 AM 55.4 °F 51.8 °F 88% 30.06 in 10.0 mi NNE 6.9 mph - N/A   Unknown
6:55 AM 55.4 °F 51.8 °F 88% 30.08 in 10.0 mi North 6.9 mph - N/A   Overcast
7:15 AM 55.4 °F 51.8 °F 88% 30.08 in 10.0 mi North 6.9 mph - N/A   Unknown
7:35 AM 55.4 °F 51.8 °F 88% 30.09 in 10.0 mi North 6.9 mph - N/A   Unknown
7:55 AM 55.4 °F 51.8 °F 88% 30.09 in 10.0 mi North 6.9 mph - N/A   Overcast
8:15 AM 55.4 °F 51.8 °F 88% 30.09 in 10.0 mi NNE 6.9 mph - N/A   Mostly Cloudy
8:35 AM 55.4 °F 51.8 °F 88% 30.09 in 10.0 mi NNE 8.1 mph - N/A   Mostly Cloudy
8:55 AM 55.4 °F 51.8 °F 88% 30.10 in 10.0 mi NNE 9.2 mph - N/A   Mostly Cloudy
9:15 AM 57.2 °F 53.6 °F 88% 30.09 in 10.0 mi NNE 10.4 mph - N/A   Unknown
9:35 AM 59.0 °F 53.6 °F 82% 30.10 in 10.0 mi NNE 9.2 mph - N/A   Unknown
9:55 AM 60.8 °F 53.6 °F 77% 30.09 in 10.0 mi NE 12.7 mph - N/A   Unknown
10:15 AM 60.8 °F 53.6 °F 77% 30.09 in 10.0 mi ENE 11.5 mph 16.1 mph N/A   Unknown
10:35 AM 60.8 °F 53.6 °F 77% 30.08 in 10.0 mi ENE 12.7 mph - N/A   Unknown
10:55 AM 62.6 °F 55.4 °F 77% 30.08 in 10.0 mi ENE 11.5 mph - N/A   Unknown
11:15 AM 62.6 °F 55.4 °F 77% 30.08 in 10.0 mi East 10.4 mph - N/A   Unknown
11:35 AM 64.4 °F 55.4 °F 73% 30.08 in 10.0 mi NE 6.9 mph - N/A   Scattered Clouds
11:55 AM 64.4 °F 55.4 °F 73% 30.08 in 10.0 mi NE 10.4 mph - N/A   Scattered Clouds
12:15 PM 66.2 °F 55.4 °F 68% 30.09 in 10.0 mi ENE 9.2 mph - N/A   Scattered Clouds
12:35 PM 66.2 °F 55.4 °F 68% 30.09 in 10.0 mi NE 8.1 mph - N/A   Scattered Clouds
12:55 PM 68.0 °F 55.4 °F 64% 30.10 in 10.0 mi NE 6.9 mph - N/A   Mostly Cloudy
1:35 PM 68.0 °F 57.2 °F 68% 30.10 in 10.0 mi NE 9.2 mph - N/A   Overcast
1:55 PM 68.0 °F 55.4 °F 64% 30.10 in 10.0 mi NE 9.2 mph - N/A   Overcast
2:15 PM 68.0 °F 57.2 °F 68% 30.11 in 10.0 mi ENE 6.9 mph - N/A   Overcast
2:35 PM 66.2 °F 57.2 °F 73% 30.11 in 10.0 mi ENE 6.9 mph - N/A   Overcast
2:55 PM 68.0 °F 55.4 °F 64% 30.11 in 10.0 mi East 6.9 mph - N/A   Overcast
3:15 PM 66.2 °F 55.4 °F 68% 30.10 in 10.0 mi East 9.2 mph - N/A   Overcast
3:35 PM 64.4 °F 55.4 °F 73% 30.10 in 10.0 mi East 6.9 mph - N/A   Unknown
3:55 PM 64.4 °F 55.4 °F 73% 30.10 in 10.0 mi East 11.5 mph - N/A   Unknown
4:15 PM 66.2 °F 55.4 °F 68% 30.10 in 10.0 mi East 12.7 mph 16.1 mph N/A   Overcast
4:35 PM 64.4 °F 55.4 °F 73% 30.11 in 10.0 mi East 10.4 mph - N/A   Overcast
4:55 PM 64.4 °F 55.4 °F 73% 30.10 in 10.0 mi ENE 9.2 mph - N/A   Unknown
5:15 PM 64.4 °F 55.4 °F 73% 30.09 in 10.0 mi ENE 10.4 mph - N/A   Unknown
5:55 PM 62.6 °F 55.4 °F 77% 30.10 in 10.0 mi East 8.1 mph - N/A   Unknown
6:15 PM 62.6 °F 55.4 °F 77% 30.09 in 10.0 mi ENE 9.2 mph - N/A   Unknown
6:35 PM 62.6 °F 55.4 °F 77% 30.09 in 10.0 mi ENE 6.9 mph - N/A   Unknown
6:55 PM 62.6 °F 55.4 °F 77% 30.09 in 10.0 mi ENE 8.1 mph - N/A   Unknown
7:35 PM 60.8 °F 53.6 °F 77% 30.09 in 10.0 mi ENE 11.5 mph - N/A   Unknown
7:55 PM 60.8 °F 53.6 °F 77% 30.09 in 10.0 mi ENE 10.4 mph 17.3 mph N/A   Unknown
8:15 PM 60.8 °F 53.6 °F 77% 30.10 in 10.0 mi East 12.7 mph - N/A   Unknown
8:35 PM 60.8 °F 53.6 °F 77% 30.10 in 10.0 mi East 12.7 mph 18.4 mph N/A   Unknown
8:55 PM 59.0 °F 53.6 °F 82% 30.10 in 10.0 mi ENE 10.4 mph - N/A   Unknown
9:15 PM 59.0 °F 53.6 °F 82% 30.10 in 10.0 mi East 8.1 mph - N/A   Unknown
9:35 PM 59.0 °F 53.6 °F 82% 30.10 in 10.0 mi East 12.7 mph 16.1 mph N/A   Unknown
9:55 PM 59.0 °F 53.6 °F 82% 30.07 in 10.0 mi ENE 12.7 mph 17.3 mph N/A   Unknown
10:15 PM 59.0 °F 51.8 °F 77% 30.08 in 10.0 mi East 16.1 mph 21.9 mph N/A   Unknown
10:55 PM 57.2 °F 51.8 °F 82% 30.08 in 10.0 mi East 12.7 mph 17.3 mph N/A   Unknown
11:15 PM 57.2 °F 51.8 °F 82% 30.09 in 10.0 mi East 11.5 mph 20.7 mph N/A   Unknown
11:35 PM 57.2 °F 51.8 °F 82% 30.05 in 10.0 mi ENE 11.5 mph 17.3 mph N/A   Unknown
11:55 PM 55.4 °F 51.8 °F 88% 30.04 in 10.0 mi East 12.7 mph 17.3 mph N/A   Unknown